H1 CPF 2 NER 2021 10 6 9 279 01 glonass137 H2 1705501 9137 42939 2021 10 6 0 0 0 2021 10 9 23 45 0 900 1 1 0 0 0 1 H9 10 0 59493 0.00000 0 -11694994.029 -21979432.195 5607359.830 10 0 59493 900.00000 0 -11273614.830 -21201786.645 8648042.080 10 0 59493 1800.00000 0 -10563421.488 -20178011.462 11521009.229 10 0 59493 2700.00000 0 -9546435.018 -18962811.050 14170590.985 10 0 59493 3600.00000 0 -8216782.865 -17615330.349 16545462.925 10 0 59493 4500.00000 0 -6581203.270 -16196634.911 18599632.480 10 0 59493 5400.00000 0 -4659025.905 -14767132.156 20293321.112 10 0 59493 6300.00000 0 -2481628.756 -13384041.239 21593726.588 10 0 59493 7200.00000 0 -91392.919 -12099016.727 22475651.497 10 0 59493 8100.00000 0 2459802.480 -10956024.497 22921986.734 10 0 59493 9000.00000 0 5112484.232 -9989557.711 22924041.263 10 0 59493 9900.00000 0 7801810.361 -9223266.605 22481712.080 10 0 59493 10800.00000 0 10460026.203 -8669058.665 21603491.116 10 0 59493 11700.00000 0 13019051.027 -8326706.395 20306308.545 10 0 59493 12600.00000 0 15413089.212 -8183978.978 18615214.801 10 0 59493 13500.00000 0 17581158.846 -8217292.392 16562906.486 10 0 59493 14400.00000 0 19469433.452 -8392851.025 14189104.128 10 0 59493 15300.00000 0 21033299.854 -8668233.251 11539792.710 10 0 59493 16200.00000 0 22239046.518 -8994354.631 8666338.558 10 0 59493 17100.00000 0 23065111.746 -9317726.256 5624498.767 10 0 59493 18000.00000 0 23502839.074 -9582912.988 2473341.916 10 0 59493 18900.00000 0 23556707.805 -9735087.398 -725899.262 10 0 59493 19800.00000 0 23244028.536 -9722570.788 -3911020.854 10 0 59493 20700.00000 0 22594116.133 -9499252.765 -7020062.596 10 0 59493 21600.00000 0 21646974.838 -9026785.659 -9992520.307 10 0 59493 22500.00000 0 20451550.909 -8276459.395 -12770531.406 10 0 59493 23400.00000 0 19063626.721 -7230675.866 -15300009.470 10 0 59493 24300.00000 0 17543445.491 -5883958.782 -17531704.895 10 0 59493 25200.00000 0 15953167.244 -4243454.698 -19422170.276 10 0 59493 26100.00000 0 14354263.697 -2328902.588 -20934611.155 10 0 59493 27000.00000 0 12804962.221 -172071.884 -22039605.266 10 0 59493 27900.00000 0 11357846.629 2184308.653 -22715676.235 10 0 59493 28800.00000 0 10057715.790 4688087.154 -22949710.611 10 0 59493 29700.00000 0 8939789.797 7279626.460 -22737210.390 10 0 59493 30600.00000 0 8028338.506 9894063.088 -22082376.429 10 0 59493 31500.00000 0 7335789.318 12463793.365 -20998021.488 10 0 59493 32400.00000 0 6862350.582 14921083.372 -19505314.935 10 0 59493 33300.00000 0 6596165.205 17200694.122 -17633364.414 10 0 59493 34200.00000 0 6513986.677 19242412.767 -15418642.941 10 0 59493 35100.00000 0 6582347.569 20993384.643 -12904272.909 10 0 59493 36000.00000 0 6759169.880 22410149.379 -10139181.194 10 0 59493 36900.00000 0 6995748.000 23460296.681 -7177142.250 10 0 59493 37800.00000 0 7239019.393 24123673.498 -4075728.167 10 0 59493 38700.00000 0 7434026.111 24393093.146 -895186.465 10 0 59493 39600.00000 0 7526462.340 24274517.890 2302732.046 10 0 59493 40500.00000 0 7465199.774 23786708.648 5455972.295 10 0 59493 41400.00000 0 7204683.708 22960357.765 8503377.410 10 0 59493 42300.00000 0 6707098.519 21836742.365 11385871.116 10 0 59493 43200.00000 0 5944211.004 20465955.688 14047597.405 10 0 59493 44100.00000 0 4898813.771 18904791.141 16436995.805 10 0 59493 45000.00000 0 3565707.796 17214367.978 18507791.993 10 0 59493 45900.00000 0 1952182.428 15457597.875 20219885.457 10 0 59493 46800.00000 0 77972.048 13696597.850 21540117.970 10 0 59493 47700.00000 0 -2025309.705 11990156.912 22442908.924 10 0 59493 48600.00000 0 -4315235.696 10391361.179 22910746.107 10 0 59493 49500.00000 0 -6740088.213 8945475.454 22934523.104 10 0 59493 50400.00000 0 -9240777.345 7688168.645 22513717.143 10 0 59493 51300.00000 0 -11753076.768 6644156.033 21656403.951 10 0 59493 52200.00000 0 -14210085.844 5826314.295 20379108.972 10 0 59493 53100.00000 0 -16544817.192 5235305.744 18706497.136 10 0 59493 54000.00000 0 -18692803.588 4859727.211 16670906.165 10 0 59493 54900.00000 0 -20594616.674 4676777.266 14311731.315 10 0 59493 55800.00000 0 -22198193.118 4653413.913 11674672.273 10 0 59493 56700.00000 0 -23460871.387 4747954.249 8810855.689 10 0 59493 57600.00000 0 -24351053.860 4912048.839 5775849.430 10 0 59493 58500.00000 0 -24849424.225 5092947.539 2628587.125 10 0 59493 59400.00000 0 -24949668.512 5235960.786 -569776.372 10 0 59493 60300.00000 0 -24658668.781 5287011.701 -3757056.276 10 0 59493 61200.00000 0 -23996160.673 5195170.175 -6871252.222 10 0 59493 62100.00000 0 -22993868.743 4915060.439 -9851761.360 10 0 59493 63000.00000 0 -21694155.668 4409038.808 -12640565.738 10 0 59493 63900.00000 0 -20148242.172 3649047.855 -15183369.828 10 0 59493 64800.00000 0 -18414072.739 2618066.947 -17430665.239 10 0 59493 65700.00000 0 -16553917.266 1311096.216 -19338701.133 10 0 59493 66600.00000 0 -14631809.907 -264369.098 -20870340.893 10 0 59493 67500.00000 0 -12710933.132 -2088395.325 -21995788.079 10 0 59493 68400.00000 0 -10851057.088 -4129196.962 -22693167.475 10 0 59493 69300.00000 0 -9106141.818 -6344229.549 -22948949.968 10 0 59493 70200.00000 0 -7522202.683 -8681743.843 -22758213.268 10 0 59493 71100.00000 0 -6135527.977 -11082736.919 -22124733.700 10 0 59493 72000.00000 0 -4971322.666 -13483218.953 -21060907.608 10 0 59493 72900.00000 0 -4042834.026 -15816701.358 -19587504.283 10 0 59493 73800.00000 0 -3350994.478 -18016802.584 -17733255.501 10 0 59493 74700.00000 0 -2884595.120 -20019862.883 -15534290.013 10 0 59493 75600.00000 0 -2620980.972 -21767459.094 -13033424.284 10 0 59493 76500.00000 0 -2527236.994 -23208714.659 -10279323.561 10 0 59493 77400.00000 0 -2561813.300 -24302308.647 -7325550.026 10 0 59493 78300.00000 0 -2676519.497 -25018100.353 -4229516.889 10 0 59493 79200.00000 0 -2818802.643 -25338302.191 -1051369.163 10 0 59493 80100.00000 0 -2934211.537 -25258152.602 2147186.657 10 0 59493 81000.00000 0 -2968942.365 -24786061.799 5304080.946 10 0 59493 81900.00000 0 -2872357.542 -23943225.269 8358083.877 10 0 59493 82800.00000 0 -2599371.023 -22762722.182 11249989.426 10 0 59493 83700.00000 0 -2112599.196 -21288137.346 13923757.694 10 0 59493 84600.00000 0 -1384186.511 -19571764.975 16327593.862 10 0 59493 85500.00000 0 -397228.919 -17672469.733 18414943.380 10 0 59494 0.00000 0 853264.899 -15653294.584 20145384.927 10 0 59494 900.00000 0 2359916.018 -13578913.778 21485405.631 10 0 59494 1800.00000 0 4103039.579 -11513039.294 22409042.224 10 0 59494 2700.00000 0 6051231.539 -9515884.154 22898379.772 10 0 59494 3600.00000 0 8162453.064 -7641789.828 22943896.536 10 0 59494 4500.00000 0 10385569.518 -5937114.266 22544649.696 10 0 59494 5400.00000 0 12662281.566 -4438467.493 21708298.200 10 0 59494 6300.00000 0 14929369.817 -3171367.218 20450961.910 10 0 59494 7200.00000 0 17121161.128 -2149369.754 18796919.131 10 0 59494 8100.00000 0 19172115.405 -1373711.901 16778147.357 10 0 59494 9000.00000 0 21019426.232 -833478.415 14433714.970 10 0 59494 9900.00000 0 22605527.511 -506287.915 11809034.520 10 0 59494 10800.00000 0 23880401.764 -359468.356 8954990.906 10 0 59494 11700.00000 0 24803593.424 -351672.609 5926960.425 10 0 59494 12600.00000 0 25345842.248 -434865.991 2783739.197 10 0 59494 13500.00000 0 25490267.641 -556601.590 -413598.547 10 0 59494 14400.00000 0 25233053.227 -662486.713 -3602890.019 10 0 59494 15300.00000 0 24583601.974 -698735.369 -6722097.633 10 0 59494 16200.00000 0 23564154.541 -614697.695 -9710522.687 10 0 59494 17100.00000 0 22208886.224 -365257.941 -12509994.502 10 0 59494 18000.00000 0 20562520.110 87001.910 -15066010.865 10 0 59494 18900.00000 0 18678514.593 769966.006 -17328806.737 10 0 59494 19800.00000 0 16616901.459 1700555.130 -19254329.699 10 0 59494 20700.00000 0 14441865.560 2883765.719 -20805102.540 10 0 59494 21600.00000 0 12219167.894 4312219.288 -21950955.917 10 0 59494 22500.00000 0 10013520.295 5966242.505 -22669616.743 10 0 59494 23400.00000 0 7886021.857 7814475.523 -22947140.901 10 0 59494 24300.00000 0 5891764.232 9814983.905 -22778182.131 10 0 59494 25200.00000 0 4077705.573 11916828.166 -22166092.145 10 0 59494 26100.00000 0 2480901.401 14062025.600 -21122850.394 10 0 59494 27000.00000 0 1127165.368 16187822.584 -19668825.177 10 0 59494 27900.00000 0 30214.618 18229182.527 -17832371.061 10 0 59494 28800.00000 0 -808665.952 20121385.384 -15649270.755 10 0 59494 29700.00000 0 -1400428.238 21802630.130 -13162032.629 10 0 59494 30600.00000 0 -1767544.380 23216531.386 -10419057.761 10 0 59494 31500.00000 0 -1942801.030 24314405.779 -7473693.202 10 0 59494 32400.00000 0 -1967657.093 25057252.605 -4383190.176 10 0 59494 33300.00000 0 -1890235.755 25417346.217 -1207587.899 10 0 59494 34200.00000 0 -1763036.930 25379373.900 1991454.830 10 0 59494 35100.00000 0 -1640467.870 24941072.262 5151857.209 10 0 59494 36000.00000 0 -1576297.058 24113336.159 8212319.745 10 0 59494 36900.00000 0 -1621139.458 22919796.368 11113509.763 10 0 59494 37800.00000 0 -1820079.566 21395884.357 13799206.334 10 0 59494 38700.00000 0 -2210532.696 19587423.732 16217382.831 10 0 59494 39600.00000 0 -2820434.590 17548807.556 18321206.688 10 0 59494 40500.00000 0 -3666835.633 15340837.527 20069937.885 10 0 59494 41400.00000 0 -4754958.954 13028314.740 21429709.705 10 0 59494 42300.00000 0 -6077762.303 10677481.731 22374177.584 10 0 59494 43200.00000 0 -7616022.813 8353421.236 22885024.411 10 0 59494 44100.00000 0 -9338942.137 6117518.625 22952313.188 10 0 59494 45000.00000 0 -11205247.970 4025092.292 22574680.595 10 0 59494 45900.00000 0 -13164747.564 2123289.142 21759367.793 10 0 59494 46800.00000 0 -15160270.114 449331.499 20522087.514 10 0 59494 47700.00000 0 -17129918.629 -970812.578 18886729.353 10 0 59494 48600.00000 0 -19009538.902 -2123281.007 16884907.990 10 0 59494 49500.00000 0 -20735303.777 -3006656.469 14555361.938 10 0 59494 50400.00000 0 -22246305.578 -3631778.407 11943213.277 10 0 59494 51300.00000 0 -23487048.735 -4021036.396 9099101.603 10 0 59494 52200.00000 0 -24409738.212 -4207174.685 6078208.010 10 0 59494 53100.00000 0 -24976267.290 -4231658.349 2939187.477 10 0 59494 54000.00000 0 -25159820.505 -4142670.232 -256969.893 10 0 59494 54900.00000 0 -24946023.331 -3992823.687 -3448126.629 10 0 59494 55800.00000 0 -24333589.119 -3836688.466 -6572211.009 10 0 59494 56700.00000 0 -23334434.939 -3728235.356 -9568431.295 10 0 59494 57600.00000 0 -21973260.466 -3718308.883 -12378466.606 10 0 59494 58500.00000 0 -20286606.816 -3852236.314 -14947610.237 10 0 59494 59400.00000 0 -18321434.391 -4167675.574 -17225842.325 10 0 59494 60300.00000 0 -16133279.151 -4692794.518 -19168810.261 10 0 59494 61200.00000 0 -13784064.623 -5444859.832 -20738697.146 10 0 59494 62100.00000 0 -11339661.449 -6429296.411 -21904961.105 10 0 59494 63000.00000 0 -8867296.666 -7639257.998 -22644930.997 10 0 59494 63900.00000 0 -6432921.253 -9055728.075 -22944246.969 10 0 59494 64800.00000 0 -4098645.784 -10648147.540 -22797137.535 10 0 59494 65700.00000 0 -1920351.006 -12375543.402 -22206528.105 10 0 59494 66600.00000 0 54427.440 -14188111.482 -21183979.161 10 0 59494 67500.00000 0 1788252.696 -16029187.008 -19749455.640 10 0 59494 68400.00000 0 3255106.730 -17837520.626 -17930932.303 10 0 59494 69300.00000 0 4441222.938 -19549764.412 -15763843.079 10 0 59494 70200.00000 0 5345398.204 -21103063.641 -13290385.396 10 0 59494 71100.00000 0 5978773.231 -22437645.653 -10558693.296 10 0 59494 72000.00000 0 6364092.270 -23499297.143 -7621895.843 10 0 59494 72900.00000 0 6534475.359 -24241626.061 -4537079.487 10 0 59494 73800.00000 0 6531756.619 -24628013.346 -1364174.948 10 0 59494 74700.00000 0 6404460.248 -24633172.835 1835209.226 10 0 59494 75600.00000 0 6205501.044 -24244254.291 4998983.452 10 0 59494 76500.00000 0 5989707.558 -23461443.733 8065780.783 10 0 59494 77400.00000 0 5811273.192 -22298036.378 10976143.907 10 0 59494 78300.00000 0 5721243.254 -20779979.623 13673672.651 10 0 59494 79200.00000 0 5765144.157 -18944905.445 16106110.112 10 0 59494 80100.00000 0 5980854.634 -16840692.890 18226346.953 10 0 59494 81000.00000 0 6396808.522 -14523620.439 19993325.246 10 0 59494 81900.00000 0 7030604.625 -12056184.843 21372825.335 10 0 59494 82800.00000 0 7888082.118 -9504676.511 22338121.418 10 0 59494 83700.00000 0 8962900.589 -6936611.242 22870494.091 10 0 59494 84600.00000 0 10236642.998 -4418123.708 22959590.629 10 0 59494 85500.00000 0 11679438.153 -2011429.651 22603626.424 10 0 59495 0.00000 0 13251077.818 227539.107 21809423.886 10 0 59495 900.00000 0 14902584.079 2251231.147 20592287.164 10 0 59495 1800.00000 0 16578160.871 4022214.408 18975715.689 10 0 59495 2700.00000 0 18217452.422 5514490.324 16990959.649 10 0 59495 3600.00000 0 19758013.404 6714326.017 14676425.843 10 0 59495 4500.00000 0 21137889.199 7620571.524 12076943.897 10 0 59495 5400.00000 0 22298198.657 8244448.914 9242905.983 10 0 59495 6300.00000 0 23185611.148 8608822.384 6229295.722 10 0 59495 7200.00000 0 23754613.550 8746980.112 3094624.581 10 0 59495 8100.00000 0 23969471.166 8700979.448 -100203.937 10 0 59495 9000.00000 0 23805799.007 8519625.613 -3293080.189 10 0 59495 9900.00000 0 23251676.042 8256169.804 -6421900.794 10 0 59495 10800.00000 0 22308254.153 7965824.826 -9425783.354 10 0 59495 11700.00000 0 20989834.858 7703204.337 -12246258.994 10 0 59495 12600.00000 0 19323409.453 7519795.176 -14828418.514 10 0 59495 13500.00000 0 17347680.959 7461570.987 -17121988.988 10 0 59495 14400.00000 0 15111608.296 7566849.321 -19082319.151 10 0 59495 15300.00000 0 12672533.344 7864484.002 -20671253.730 10 0 59495 16200.00000 0 10093969.151 8372470.196 -21857879.444 10 0 59495 17100.00000 0 7443141.687 9097022.014 -22619128.043 10 0 59495 18000.00000 0 4788387.903 10032162.267 -22940224.674 10 0 59495 18900.00000 0 2196518.591 11159842.269 -22814973.136 10 0 59495 19800.00000 0 -269744.231 12450587.069 -22245872.736 10 0 59495 20700.00000 0 -2554148.876 13864639.207 -21244064.832 10 0 59495 21600.00000 0 -4609015.963 15353553.075 -19829110.440 10 0 59495 22500.00000 0 -6396974.126 16862172.900 -18028603.517 10 0 59495 23400.00000 0 -7892258.186 18330911.171 -15877627.776 10 0 59495 24300.00000 0 -9081517.171 19698231.645 -13418067.855 10 0 59495 25200.00000 0 -9964100.097 20903232.465 -10697788.536 10 0 59495 26100.00000 0 -10551809.441 21888220.652 -7769698.358 10 0 59495 27000.00000 0 -10868134.637 22601169.635 -4690716.200 10 0 59495 27900.00000 0 -10946999.783 22997956.499 -1520661.316 10 0 59495 28800.00000 0 -10831080.054 23044284.905 1678911.090 10 0 59495 29700.00000 0 -10569759.376 22717213.047 4845905.801 10 0 59495 30600.00000 0 -10216816.778 22006222.662 7918891.547 10 0 59495 31500.00000 0 -9827939.959 20913784.493 10838289.435 10 0 59495 32400.00000 0 -9458171.567 19455396.732 13547522.960 10 0 59495 33300.00000 0 -9159396.122 17659094.972 15994107.683 10 0 59495 34200.00000 0 -8977973.468 15564454.160 18130659.982 10 0 59495 35100.00000 0 -8952618.195 13221123.963 19915806.223 10 0 59495 36000.00000 0 -9112613.915 10686958.067 21314975.680 10 0 59495 36900.00000 0 -9476437.225 8025814.497 22301062.800 10 0 59495 37800.00000 0 -10050848.990 5305117.316 22854946.942 10 0 59495 38700.00000 0 -10830491.289 2593279.595 22965860.232 10 0 59495 39600.00000 0 -11798007.371 -42906.752 22631596.848 10 0 59495 40500.00000 0 -12924680.449 -2540807.513 21858559.773 10 0 59495 41400.00000 0 -14171565.689 -4844305.337 20661643.816 10 0 59495 42300.00000 0 -15491069.304 -6905884.733 19063956.524 10 0 59495 43200.00000 0 -16828909.975 -8688357.432 17096381.437 10 0 59495 44100.00000 0 -18126381.751 -10166157.087 14796991.018 10 0 59495 45000.00000 0 -19322824.562 -11326149.903 12210319.413 10 0 59495 45900.00000 0 -20358199.410 -12167927.688 9386508.037 10 0 59495 46800.00000 0 -21175660.348 -12703571.322 6380339.519 10 0 59495 47700.00000 0 -21724014.923 -12956894.637 3250178.200 10 0 59495 48600.00000 0 -21959968.878 -12962200.732 56837.380 10 0 59495 49500.00000 0 -21850059.595 -12762603.352 -3137604.636 10 0 59495 50400.00000 0 -21372195.459 -12407984.569 -6271016.184 10 0 59495 51300.00000 0 -20516734.853 -11952675.653 -9282427.395 10 0 59495 52200.00000 0 -19287057.742 -11452959.992 -12113224.351 10 0 59495 53100.00000 0 -17699604.412 -10964504.612 -14708298.022 10 0 59495 54000.00000 0 -15783378.440 -10539830.005 -17017124.751 10 0 59495 54900.00000 0 -13578933.733 -10225926.336 -18994756.527 10 0 59495 55800.00000 0 -11136887.404 -10062117.843 -20602701.138 10 0 59495 56700.00000 0 -8516020.251 -10078266.509 -21809674.786 10 0 59495 57600.00000 0 -5781043.907 -10293391.640 -22592212.406 10 0 59495 58500.00000 0 -3000127.785 -10714764.085 -22935123.857 10 0 59495 59400.00000 0 -242288.812 -11337513.678 -22831787.364 10 0 59495 60300.00000 0 2425247.539 -12144766.605 -22284274.771 10 0 59495 61200.00000 0 4939605.179 -13108306.949 -21303306.521 10 0 59495 62100.00000 0 7244628.354 -14189734.467 -19908037.559 10 0 59495 63000.00000 0 9292967.599 -15342069.691 -18125678.595 10 0 59495 63900.00000 0 11047794.659 -16511738.508 -15990960.438 10 0 59495 64800.00000 0 12484076.174 -17640852.400 -13545452.053 10 0 59495 65700.00000 0 13589354.427 -18669688.025 -10836745.911 10 0 59495 66600.00000 0 14364004.176 -19539261.407 -7917526.850 10 0 59495 67500.00000 0 14820956.729 -20193888.058 -4844542.931 10 0 59495 68400.00000 0 14984904.757 -20583621.001 -1677498.686 10 0 59495 69300.00000 0 14891023.103 -20666463.900 1522107.221 10 0 59495 70200.00000 0 14583261.169 -20410266.090 4692176.975 10 0 59495 71100.00000 0 14112280.254 -19794219.800 7771217.796 10 0 59495 72000.00000 0 13533123.882 -18809896.733 10699531.725 10 0 59495 72900.00000 0 12902720.087 -17461780.536 13420368.083 10 0 59495 73800.00000 0 12277321.278 -15767272.795 15881016.653 10 0 59495 74700.00000 0 11709989.543 -13756172.220 18033820.876 10 0 59495 75600.00000 0 11248232.969 -11469648.360 19837092.324 10 0 59495 76500.00000 0 10931891.933 -8958752.055 21255909.689 10 0 59495 77400.00000 0 10791363.669 -6282523.798 22262787.737 10 0 59495 78300.00000 0 10846239.176 -3505777.501 22838204.264 10 0 59495 79200.00000 0 11104409.401 -696650.280 22970975.562 10 0 59495 80100.00000 0 11561678.151 2075981.504 22658473.563 10 0 59495 81000.00000 0 12201898.276 4745114.401 21906680.608 10 0 59495 81900.00000 0 12997626.088 7248151.454 20730080.461 10 0 59495 82800.00000 0 13911267.453 9529253.380 19151387.068 10 0 59495 83700.00000 0 14896668.624 11541410.921 17201115.396 10 0 59495 84600.00000 0 15901086.163 13248153.095 14917001.487 10 0 59495 85500.00000 0 16867454.275 14624820.760 12343281.809 10 0 59496 0.00000 0 17736854.938 15659352.655 9529844.979 10 0 59496 900.00000 0 18451087.783 16352551.741 6531269.731 10 0 59496 1800.00000 0 18955230.362 16717819.371 3405771.065 10 0 59496 2700.00000 0 19200081.960 16780370.402 214069.585 10 0 59496 3600.00000 0 19144385.841 16575960.890 -2981790.209 10 0 59496 4500.00000 0 18756735.403 16149182.860 -6119650.760 10 0 59496 5400.00000 0 18017082.247 15551398.415 -9138456.960 10 0 59496 6300.00000 0 16917780.921 14838401.066 -11979451.893 10 0 59496 7200.00000 0 15464124.696 14067903.854 -14587328.518 10 0 59496 8100.00000 0 13674348.260 13296961.337 -16911314.021 10 0 59496 9000.00000 0 11579095.845 12579435.294 -18906165.009 10 0 59496 9900.00000 0 9220376.072 11963612.084 -20533053.494 10 0 59496 10800.00000 0 6650046.393 11490073.042 -21760326.163 10 0 59496 11700.00000 0 3927889.933 11189908.329 -22564121.991 10 0 59496 12600.00000 0 1119364.690 11083349.967 -22928836.242 10 0 59496 13500.00000 0 -1706881.320 11178881.796 -22847422.050 10 0 59496 14400.00000 0 -4481625.732 11472863.809 -22321524.017 10 0 59496 15300.00000 0 -7137709.541 11949686.431 -21361441.553 10 0 59496 16200.00000 0 -9612587.492 12582447.869 -19985923.018 10 0 59496 17100.00000 0 -11850685.525 13334125.507 -18221794.948 10 0 59496 18000.00000 0 -13805467.745 14159191.472 -16103433.895 10 0 59496 18900.00000 0 -15441127.778 15005603.702 -13672091.419 10 0 59496 19800.00000 0 -16733835.177 15817088.054 -10975085.623 10 0 59496 20700.00000 0 -17672486.165 16535614.680 -8064875.335 10 0 59496 21600.00000 0 -18258928.996 17103963.750 -4998035.296 10 0 59496 22500.00000 0 -18507656.245 17468271.928 -1834152.683 10 0 59496 23400.00000 0 -18444978.688 17580451.870 1365333.090 10 0 59496 24300.00000 0 -18107717.255 17400382.541 4538324.393 10 0 59496 25200.00000 0 -17541469.598 16897777.922 7623269.732 10 0 59496 26100.00000 0 -16798525.495 16053655.385 10560354.871 10 0 59496 27000.00000 0 -15935519.773 14861341.932 13292657.721 10 0 59496 27900.00000 0 -15010922.079 13326975.917 15767244.949 10 0 59496 28800.00000 0 -14082469.234 11469483.004 17936189.584 10 0 59496 29700.00000 0 -13204647.945 9320026.948 19757490.731 10 0 59496 30600.00000 0 -12426333.095 6920957.397 21195878.560 10 0 59496 31500.00000 0 -11788680.125 4324297.712 22223489.892 10 0 59496 32400.00000 0 -11323359.159 1589834.480 22820402.321 10 0 59496 33300.00000 0 -11051204.256 -1217113.353 22975017.237 10 0 59496 34200.00000 0 -10981333.952 -4028154.660 22684284.807 10 0 59496 35100.00000 0 -11110779.721 -6774415.245 21953766.717 10 0 59496 36000.00000 0 -11424638.062 -9389150.172 20797535.158 10 0 59496 36900.00000 0 -11896740.276 -11810272.323 19237909.450 10 0 59496 37800.00000 0 -12490812.505 -13982693.497 17305034.457 10 0 59496 38700.00000 0 -13162078.160 -15860381.742 15036307.820 10 0 59496 39600.00000 0 -13859236.252 -17408049.820 12475665.939 10 0 59496 40500.00000 0 -14526733.097 -18602404.825 9672741.385 10 0 59496 41400.00000 0 -15107232.217 -19432906.827 6681907.038 10 0 59496 42300.00000 0 -15544178.395 -19902004.689 3561224.914 10 0 59496 43200.00000 0 -15784347.398 -20024839.080 371319.671 10 0 59496 44100.00000 0 -15780272.984 -19828425.067 -2825801.306 10 0 59496 45000.00000 0 -15492447.559 -19350348.696 -5967957.863 10 0 59496 45900.00000 0 -14891202.101 -18637032.717 -8994012.920 10 0 59496 46800.00000 0 -13958184.329 -17741645.003 -11845069.738 10 0 59496 47700.00000 0 -12687371.027 -16721738.509 -14465626.282 10 0 59496 48600.00000 0 -11085570.164 -15636723.132 -16804663.391 10 0 59496 49500.00000 0 -9172390.033 -14545276.960 -18816644.774 10 0 59496 50400.00000 0 -6979675.418 -13502806.908 -20462408.773 10 0 59496 51300.00000 0 -4550433.215 -12559066.524 -21709934.173 10 0 59496 52200.00000 0 -1937291.600 -11756031.805 -22534965.075 10 0 59496 53100.00000 0 799443.458 -11126124.824 -22921482.661 10 0 59496 54000.00000 0 3594053.736 -10690859.929 -22862014.939 10 0 59496 54900.00000 0 6377902.289 -10459969.245 -22357778.713 10 0 59496 55800.00000 0 9082051.278 -10431043.826 -21418651.334 10 0 59496 56700.00000 0 11639895.509 -10589704.881 -20062973.133 10 0 59496 57600.00000 0 13989702.357 -10910297.066 -18317184.642 10 0 59496 58500.00000 0 16076952.787 -11357073.786 -16215305.972 10 0 59496 59400.00000 0 17856386.605 -11885823.624 -13798268.748 10 0 59496 60300.00000 0 19293667.549 -12445868.457 -11113113.834 10 0 59496 61200.00000 0 20366599.742 -12982348.120 -8212070.869 10 0 59496 62100.00000 0 21065846.007 -13438694.457 -5151537.855 10 0 59496 63000.00000 0 21395119.475 -13759189.662 -1990981.015 10 0 59496 63900.00000 0 21370842.011 -13891500.395 1208223.144 10 0 59496 64800.00000 0 21021285.448 -13789080.327 4383980.750 10 0 59496 65700.00000 0 20385233.217 -13413339.469 7474684.987 10 0 59496 66600.00000 0 19510219.911 -12735488.663 10420408.422 10 0 59496 67500.00000 0 18450423.862 -11737981.439 13164060.226 10 0 59496 68400.00000 0 17264301.942 -10415492.398 15652486.183 10 0 59496 69300.00000 0 16012066.239 -8775390.822 17837490.663 10 0 59496 70200.00000 0 14753108.456 -6837689.211 19676761.583 10 0 59496 71100.00000 0 13543479.584 -4634468.165 21134681.410 10 0 59496 72000.00000 0 12433529.818 -2208800.756 22183009.418 10 0 59496 72900.00000 0 11465806.680 386780.068 22801422.987 10 0 59496 73800.00000 0 10673298.412 3092208.776 22977908.220 10 0 59496 74700.00000 0 10078095.377 5842130.733 22708992.781 10 0 59496 75600.00000 0 9690524.822 8568370.513 21999816.624 10 0 59496 76500.00000 0 9508794.875 11202524.323 20864039.008 10 0 59496 77400.00000 0 9519162.634 13678570.471 19323582.986 10 0 59496 78300.00000 0 9696619.513 15935390.843 17408221.443 10 0 59496 79200.00000 0 10006065.515 17919099.637 15155011.529 10 0 59496 80100.00000 0 10403923.662 19585083.052 12607587.309 10 0 59496 81000.00000 0 10840127.188 20899665.266 9815323.133 10 0 59496 81900.00000 0 11260396.180 21841331.203 6832382.948 10 0 59496 82800.00000 0 11608707.795 22401454.662 3716673.352 10 0 59496 83700.00000 0 11829855.557 22584501.032 528720.321 10 0 59496 84600.00000 0 11871989.000 22407695.771 -2669508.607 10 0 59496 85500.00000 0 11689025.344 21900172.315 -5815813.336 99